The 80 - 180 metre wide asteroid 2009 HG60 made a close pass (9.6 Lunar Distances, 0.0246 AU), travelling at 18.21 km/s, to the Earth-Moon system on the 24th April 2009.
Orbital elements: 2009 HG60 Earth MOID = 0.0005 AU Epoch 2009 June 18.0 TT = JDT 2455000.5 MPC M 36.01613 (2000.0) P Q n 0.35645359 Peri. 282.84091 -0.71368022 -0.69732213 a 1.9700053 Node 213.01852 +0.68059631 -0.66790806 e 0.6443910 Incl. 6.99393 +0.16567804 -0.26007822 P 2.77 H 22.6 G 0.15 U 8